Location: Granstein
(47.0000°N, 11.0000°E)
Time: 04:47:36
(UTC+00:00)

Daily predictions for brighter satellites

Satellite Brightness Start Highest point End
(mag) Time Altitude Azimuth Time Altitude Azimuth Time Altitude Azimuth
COSMOS 2406 3.9 00:01:48 10° NNW 00:07:19 49° ENE 00:08:16 45° E
Cosmos 1844 4.0 00:09:36 61° NW 00:09:36 61° NW 00:15:02 10° NNE
Cosmos 1238 Rocket 4.4 00:03:09 10° N 00:09:26 57° ENE 00:10:27 52° ESE
Meteor 1-27 Rocket 3.8 00:13:49 75° N 00:13:49 75° N 00:19:05 10° N
Meteor 1-11 Rocket 4.2 00:11:31 10° NNW 00:16:35 55° WNW 00:16:35 55° WNW
BREEZE-M R/B 4.4 00:19:32 38° ENE 00:19:32 38° ENE 00:23:44 10° ENE
Cosmos 1538 Rocket 4.3 00:12:40 10° NNW 00:17:43 67° NE 00:17:43 67° NE
Cosmos 2341 Rocket 3.9 00:12:25 10° N 00:18:48 88° E 00:19:01 84° SSE
Cosmos 2181 Rocket 4.1 00:21:34 61° ESE 00:22:03 64° E 00:28:13 10° NNE
SJ 16-02 2.7 00:25:14 35° ENE 00:25:14 35° ENE 00:28:14 10° NNE
SL-8 Rocket 3.9 00:22:05 10° N 00:28:26 82° E 00:28:56 76° SE
Cosmos 1707 Rocket 4.5 00:45:26 43° NNW 00:45:26 43° NNW 00:48:30 10° N
Cosmos 1340 Rocket 4.4 00:41:19 10° NNW 00:43:30 31° NNW 00:43:30 31° NNW
Meteor 1-19 Rocket 4.3 00:46:28 62° ESE 00:46:51 63° E 00:52:17 10° NNE
Cosmos 1844 Rocket 4.0 00:46:55 27° WNW 00:47:51 29° NW 00:52:41 10° N
Meteor 2-4 Rocket 4.5 00:56:22 40° SE 00:57:51 48° E 01:03:29 10° NNE
Resurs 1-4 Rocket 2.0 00:55:33 10° NNE 01:00:51 81° ESE 01:01:06 78° SE
USA 234 3.9 00:54:52 10° ENE 01:00:56 39° SE 01:01:54 37° SSE
USA 305 4.4 01:00:26 28° NW 01:01:32 33° N 01:05:26 10° ENE
Cosmos 864 Rocket 4.4 00:59:13 10° NNW 01:05:25 69° W 01:06:04 64° SW
SL-4 R/B 2.4 01:05:32 76° NNE 01:05:35 76° NNE 01:10:25 10° ESE
Cosmos 2082 Rocket 2.4 01:00:12 10° NNW 01:05:50 69° ENE 01:08:14 35° SE
Cosmos 2218 Rocket 3.9 01:00:24 10° NNW 01:06:30 63° W 01:06:59 61° WSW
Cosmos 1959 Rocket 4.5 01:02:38 10° NNW 01:08:54 63° W 01:09:34 59° WSW
Cosmos 2242 Rocket 4.2 01:08:48 47° E 01:08:55 47° E 01:13:10 10° NNE
Meteor 1-18 Rocket 4.2 01:09:58 67° S 01:10:48 90° ESE 01:16:37 10° NNE
Cosmos 1833 Rocket 2.8 01:06:17 10° NNW 01:11:25 58° W 01:11:25 58° W
CZ-4C R/B 3.0 01:04:45 10° NW 01:11:57 80° NE 01:20:19 10° SE
Cosmos 158 Rocket 4.0 01:07:31 10° NNW 01:11:43 60° WNW 01:11:43 60° WNW
Cosmos 923 Rocket 3.9 01:07:23 10° NNW 01:12:38 88° ENE 01:13:16 70° SSE
Cosmos 990 Rocket 4.3 01:12:31 52° SE 01:13:09 55° ESE 01:18:16 10° NNE
Cosmos 2366 rocket 4.0 01:08:39 10° NNW 01:14:39 57° W 01:15:08 55° WSW
Helios 1B rocket 2.9 01:11:26 10° N 01:14:52 57° NNW 01:14:52 57° NNW
CZ-2D R/B 2.0 01:10:04 10° NNE 01:15:35 80° WNW 01:16:15 68° SW
SL-16 R/B 2.5 01:19:17 56° SW 01:20:14 62° WSW 01:26:29 10° NNW
Cosmos 1821 Rocket 4.1 01:16:21 10° N 01:22:43 79° E 01:25:40 35° SSE
Meteor 1-28 Rocket 4.2 01:23:51 39° E 01:24:22 42° ENE 01:27:53 10° N
Cosmos 1908 Rocket 3.5 01:20:45 10° N 01:25:06 85° NW 01:25:06 85° NW
Cosmos 1937 Rocket 4.3 01:25:29 35° SE 01:26:51 43° ESE 01:31:42 10° NE
SL-08 R/B 4.3 01:20:57 10° NNW 01:27:04 76° W 01:28:41 51° SSW
AQUA 3.6 01:22:25 10° NNE 01:27:13 89° NW 01:27:38 75° SSW
Cosmos 2278 Rocket 2.3 01:30:00 52° WSW 01:31:03 62° WNW 01:36:41 10° NNE
Cosmos 1943 Rocket 3.7 01:29:12 20° SE 01:31:55 29° ESE 01:36:41 10° NE
Cosmos 2084 4.3 01:32:01 37° ESE 01:32:03 37° ESE 01:35:59 10° NE
ARIANE 5 R/B 4.4 01:27:54 10° NE 01:32:09 24° E 01:35:58 12° SE
Cosmos 1898 Rocket 3.6 01:31:54 51° SSE 01:33:04 67° ESE 01:38:20 10° NNE
ARGOS Delta rocket 4.0 01:29:10 10° NNE 01:33:33 59° E 01:34:19 50° SE
ADEOS II 2.2 01:28:20 10° NNE 01:33:36 72° ESE 01:35:02 48° S
Landsat 4 4.1 01:31:56 10° N 01:35:01 53° NNW 01:35:01 53° NNW
Nadezhda 3 Rocket 3.9 01:42:00 40° S 01:44:29 86° W 01:50:52 10° N
ATLAS 5 CENTAUR R/B 2.8 01:43:15 10° NW 01:48:21 41° WSW 01:48:21 41° WSW
CBERS-1 4.1 01:44:13 10° NNE 01:49:20 70° ESE 01:51:19 37° S
Gbstr 26 Del rocket 3.9 01:46:45 29° W 01:49:46 62° NNW 01:54:47 10° ENE
COSMOS 2406 4.3 01:46:34 10° NW 01:50:17 27° W 01:50:17 27° W
Cosmos 1703 Rocket 3.4 01:51:28 63° WSW 01:51:52 67° W 01:56:12 10° N
Cosmos 2112 Rocket 3.9 01:47:01 10° NNW 01:52:19 67° WSW 01:54:19 38° S
Cosmos 1782 Rocket 3.5 01:49:31 10° NNW 01:54:01 80° W 01:55:05 52° S
NOSS 3-4 (A) 3.8 01:48:59 10° NW 01:55:59 90° NE 02:03:48 10° SE
NOSS 3-4 (C) 3.8 01:49:05 10° NW 01:56:05 89° NE 02:03:55 10° SE
Meteor 1-29 4.1 01:53:00 10° N 01:55:24 32° NW 01:55:24 32° NW
NPP 4.1 01:51:11 10° N 01:56:18 45° WNW 01:57:40 38° WSW
IDEFIX/ARIANE 42P 3.0 01:51:34 10° NNE 01:56:45 59° E 01:59:38 26° S
Cosmos 2369 Rocket 4.0 01:52:30 10° SSE 01:56:54 25° ESE 02:01:20 10° NE
Cosmos 1300 Rocket 4.4 01:54:33 10° N 01:58:54 50° ENE 02:03:00 11° SSE
IRS-1D 3.5 01:53:47 10° NNE 01:58:58 82° WNW 02:00:56 40° SSW
X-37B 1.9 02:00:54 31° ESE 02:00:54 31° ESE 02:03:00 10° E
Okean 3 3.5 01:59:32 44° S 02:00:51 77° E 02:05:10 10° NNE
Spot 1 3.9 01:59:50 47° S 02:01:00 79° WSW 02:05:20 10° NNW
Cosmos 1975 4.5 01:57:53 10° NNW 02:00:00 21° WNW 02:00:00 21° WNW
Okean 2 Rocket 4.2 01:57:40 10° N 02:01:56 44° ENE 02:06:09 10° SSE
Cosmos 1934 Rocket 4.0 01:55:50 10° N 02:02:11 87° E 02:07:33 14° S
SJ 16-02 2.9 02:02:12 22° WNW 02:02:48 23° WNW 02:06:20 10° N
NOSS 3-3 (A) 4.5 02:02:18 29° W 02:05:06 50° NW 02:11:41 10° NE
NOSS 3-3 (C) 4.5 02:02:25 29° W 02:05:12 50° NW 02:11:47 10° NE
Cosmos 2297 3.8 02:02:44 32° S 02:05:28 71° ESE 02:11:10 10° NNE
ATLAS 2AS CENTAUR R/B 3.0 02:02:56 10° NW 02:10:25 73° NE 02:17:15 10° SE
Cosmos 2221 Rocket 4.4 02:07:24 18° SSE 02:10:27 48° E 02:14:49 10° NNE
Okean 1-7 3.4 02:09:59 41° W 02:10:32 44° WNW 02:14:38 10° N
USA 81 4.0 02:07:41 10° N 02:13:00 86° E 02:17:18 16° S
SL-08 R/B 3.7 02:10:30 10° SSE 02:15:21 66° ENE 02:20:08 10° N
CZ-4B R/B 3.7 02:12:30 10° NNE 02:17:14 64° ESE 02:20:28 21° S
Cosmos 1378 3.1 02:18:53 50° SW 02:19:35 63° WNW 02:23:15 10° N
Cosmos 1766 4.1 02:16:06 10° N 02:20:00 50° ENE 02:23:53 10° SSE
IRS-1C 4.2 02:16:31 10° NNE 02:21:54 79° ESE 02:25:36 21° S
CZ-4C R/B 3.9 02:23:10 36° SW 02:24:23 45° W 02:28:39 10° NNW
DELTA 2 R/B (1) 4.1 02:23:20 31° SW 02:25:04 39° S 02:30:12 10° ESE
Cosmos 1605 Rocket 4.0 02:19:44 10° N 02:25:53 85° E 02:32:03 10° S
Cosmos 1680 Rocket 4.3 02:21:41 10° NW 02:26:15 30° W 02:27:04 29° WSW
ADEOS Rocket 3.3 02:21:30 15° S 02:26:55 59° W 02:34:00 10° NNW
Cosmos 489 Rocket 4.4 02:21:41 10° NNW 02:27:47 60° WSW 02:33:52 10° S
Cosmos 1733 3.2 02:26:15 10° N 02:30:03 76° E 02:33:46 10° SSE
Meteor 1-13 Rocket 4.5 02:34:31 24° SW 02:37:52 54° WNW 02:43:27 10° N
ERS-1 4.4 02:33:03 10° NNE 02:38:03 86° ESE 02:42:08 16° SSW
Resurs 1-4 Rocket 3.9 02:36:40 10° NNW 02:40:02 17° WNW 02:42:11 14° W
BREEZE-M R/B 4.4 02:36:09 11° WNW 02:40:44 74° N 02:51:23 10° E
Cosmos 1805 3.2 02:37:16 10° NNW 02:41:10 63° W 02:44:10 16° S
USA 305 4.3 02:38:12 10° NW 02:42:14 39° NNE 02:46:17 10° E
CREW DRAGON DEMO-1 DEB 4.2 02:41:32 18° NW 02:42:58 29° N 02:45:25 10° ENE
USA 234 3.3 02:37:43 10° NE 02:44:15 76° NNW 02:49:15 19° WSW
SL-4 R/B 3.0 02:41:12 12° WNW 02:45:05 34° SW 02:49:23 10° SSE
Sich 1 Rocket 3.9 02:40:41 10° NNW 02:45:06 47° W 02:48:26 17° SSW
Cosmos 1470 4.5 02:43:30 10° N 02:47:04 34° ENE 02:50:37 10° SE
Cosmos 1378 Rocket 4.3 02:43:26 10° S 02:47:44 53° E 02:52:01 10° NNE
Cosmos 2082 Rocket 3.4 02:45:23 10° NW 02:49:20 20° W 02:50:01 19° WSW
Cosmos 1818 4.4 02:46:53 10° NNW 02:52:18 55° NE 02:57:40 10° SE
CZ-2C R/B 3.1 02:49:33 10° NNE 02:54:14 53° E 02:59:03 10° S
CZ-2D R/B 4.1 02:51:49 10° NNW 02:54:46 15° NW 02:57:34 10° W
Cosmos 1356 Rocket 4.0 02:52:01 10° NNW 02:55:49 36° W 02:58:36 16° SSW
Cosmos 1048 Rocket 4.1 02:51:32 10° NNW 02:56:58 87° ENE 03:02:18 10° SSE
MSX 3.9 02:54:11 10° N 02:59:51 61° WNW 03:05:02 13° SSW
USA 306 4.1 02:56:05 10° NW 03:00:13 44° NNE 03:04:21 10° E
CZ-4C R/B 3.7 02:53:54 10° WNW 03:00:14 30° WSW 03:07:13 10° S
ALOS 3.9 02:56:39 10° NNE 03:00:54 34° E 03:05:08 10° SSE
Cosmos 1674 Rocket 3.5 02:57:14 10° S 03:01:35 88° ESE 03:06:01 10° N
Meteor 2-20 4.5 02:55:40 10° S 03:01:49 88° E 03:08:01 10° N
IRS-P3 4.5 02:56:55 10° N 03:02:05 49° WNW 03:06:22 15° SW
Cosmos 1400 Rocket 3.6 02:58:41 10° N 03:02:46 57° ENE 03:06:50 10° SSE
SL-24 R/B - RUBIN 2 4.0 02:59:29 10° NW 03:05:09 87° NE 03:10:05 10° SE
Cosmos 1459 Rocket 4.5 03:01:23 10° N 03:07:46 67° E 03:14:03 10° SSE
Cosmos 1727 Rocket 4.0 03:02:30 10° S 03:08:44 83° W 03:15:05 10° N
Cosmos 1726 3.0 03:06:39 10° N 03:10:19 52° ENE 03:13:57 10° SSE
IRAS Rocket 4.2 03:05:39 10° SSE 03:11:10 82° WSW 03:16:45 10° NNW
ARIANE 5 R/B 2.9 03:06:26 10° N 03:11:30 50° WNW 03:16:19 11° SW
Cosmos 2084 4.5 03:08:33 15° W 03:11:34 34° NW 03:15:31 10° NNE
ADEOS II 3.7 03:09:07 10° NNW 03:12:44 19° WNW 03:15:59 11° W
Cosmos 1943 Rocket 2.6 03:10:44 14° SW 03:15:24 50° WNW 03:20:54 10° NNE
Cosmos 2278 Rocket 4.3 03:13:13 10° WNW 03:16:21 15° NW 03:19:31 10° N
Cosmos 2344 4.4 03:07:55 10° NW 03:17:13 88° SW 03:30:19 10° SE
USA 307 3.9 03:13:41 10° NW 03:17:53 49° NNE 03:22:05 10° E
Cosmos 2263 4.4 03:12:33 10° SSW 03:18:15 76° ESE 03:24:02 10° NNE
Cosmos 494 Rocket 4.0 03:15:09 10° NNW 03:20:26 82° WSW 03:25:38 10° SSE
Cosmos 1842 3.3 03:18:15 10° SSW 03:22:04 61° W 03:25:55 10° N
Cosmos 44 3.5 03:17:17 10° NW 03:22:45 84° SW 03:28:03 10° SSE
Spot 4 Rocket 4.2 03:18:55 10° N 03:24:00 61° WNW 03:29:04 10° SSW
PAYLOAD A 4.0 03:19:29 10° NNE 03:24:38 77° WNW 03:29:32 10° SSW
GP-B 3.1 03:20:44 10° N 03:25:12 87° W 03:29:38 10° S
PSLV R/B 3.7 03:25:33 10° NNE 03:29:48 73° ESE 03:33:59 10° S
Cosmos 2298 Rocket 4.1 03:25:17 10° SSW 03:30:32 64° WNW 03:35:50 10° NNE
USA 308 3.6 03:26:24 10° NW 03:30:39 56° NNE 03:34:53 10° ESE
CZ-2D R/B 4.3 03:31:05 10° N 03:34:47 33° WNW 03:38:34 10° SW
OE (NEXTSAT) 4.3 03:31:34 10° W 03:35:02 77° S 03:38:30 10° E
Cosmos 1833 4.2 03:29:35 10° NNW 03:35:20 82° WSW 03:41:05 10° SSE
IDEFIX/ARIANE 42P 3.9 03:31:57 10° N 03:35:56 23° WNW 03:39:54 10° WSW
X-37B 0.7 03:33:15 10° W 03:36:25 61° S 03:39:34 10° ESE
Cosmos 1953 4.1 03:33:07 10° N 03:36:50 37° ENE 03:40:32 10° SE
Gbstr 26 Del rocket 4.1 03:31:56 10° WNW 03:37:21 51° N 03:41:44 10° E
Okean 2 3.5 03:33:52 10° SSW 03:37:57 58° WNW 03:42:05 10° N
Cosmos 2369 Rocket 2.4 03:35:01 10° SW 03:40:31 56° WNW 03:46:04 10° NNE
CZ-3B R/B 3.5 03:25:56 10° WSW 03:43:12 81° NNW 03:47:17 10° NE
CZ-2C R/B 3.2 03:40:07 10° N 03:43:44 44° WNW 03:47:24 10° SW
DNEPR-1 R/B 4.3 03:39:27 10° SW 03:45:35 65° NW 03:50:36 10° NNE
